Regional Weather Roundup
Issued by NWS

Home | Current Version | Previous Version | Graphics & Text | Print | Product List | Glossary On
Versions: 1 2 3 4 5 6 7 8 9 10 11 12 13 14 15 16 17 18 19 20 21 22 23 24 25 26 27 28 29 30 31 32 33 34 35 36 37 38 39 40 41 42 43 44 45 46 47 48 49 50
000
ASUS43 KLSX 012259
RWRMO

WEATHER SUMMARY FOR MISSOURI
NATIONAL WEATHER SERVICE SPRINGFIELD MO
500 PM CST SUN MAR 01 2015

NOTE: "FAIR" INDICATES FEW OR NO CLOUDS BELOW 12,000 FEET WITH NO
       SIGNIFICANT WEATHER AND/OR OBSTRUCTIONS TO VISIBILITY.
       CURRENT SKY AND/OR WEATHER CONDITIONS ARE NOT AVAILABLE FOR
       CHILLICOTHE AND FARMINGTON.

MOZ001>031-035>038-043-044-053-054-020000-
...NORTHERN AND WESTERN MISSOURI...

CITY           SKY/WX    TMP DP  RH WIND       PRES   REMARKS
KANSAS CTY INT PTSUNNY   32  21  64 NW7       30.38R WCI  26
KANSAS C DTWN  MOSUNNY   34  21  59 NW7       30.40R WCI  28
LEE`S SUMMIT   CLOUDY    32  21  64 NW7       30.38R WCI  26
ST JOSEPH      PTSUNNY   32  21  64 CALM      30.40R
CHILLICOTHE      N/A     32  20  61 W3        30.40S
KIRKSVILLE     PTSUNNY   29  20  69 W8        30.36S WCI  21

$$
MOZ066>068-077>081-088>096-101>105-020000-
...SOUTHWEST MISSOURI...

CITY           SKY/WX    TMP DP  RH WIND       PRES   REMARKS
SPRINGFIELD    CLOUDY    31  25  78 NW10      30.35R WCI  22
JOPLIN         CLOUDY    31  24  75 N6        30.39R WCI  25

$$
MOZ032>034-039>042-045>050-055>058-069>072-020000-
...CENTRAL MISSOURI...

CITY           SKY/WX    TMP DP  RH WIND       PRES   REMARKS
COLUMBIA       MOSUNNY   30  21  69 NW9       30.37R WCI  22
JEFFERSON CITY MOSUNNY   30  22  72 W8        30.39R WCI  22
ROLLA          CLOUDY    29  23  78 NW6       30.33S WCI  23
SEDALIA        MOSUNNY   29  20  69 N6        30.39S WCI  23
OSAGE BEACH    CLOUDY    30  23  74 CALM      30.37R

$$
MOZ051-052-059>065-020000-
...EAST CENTRAL MISSOURI...

CITY           SKY/WX    TMP DP  RH WIND       PRES   REMARKS
ST LOUIS INTL  CLOUDY    32  23  69 NW7       30.36S WCI  26
SPIRIT OF STL  CLOUDY    31  23  72 NW8       30.36S WCI  23
ST CHARLES     CLOUDY    30  23  75 NW7       30.37S WCI  23

$$
MOZ072>076-082>087-097>100-106>115-020000-
...SOUTH CENTRAL AND SOUTHEAST MISSOURI...

CITY           SKY/WX    TMP DP  RH WIND       PRES   REMARKS
CAPE GIRARDEAU CLOUDY    37  32  82 N3        30.34S
FARMINGTON     CLOUDY    32  27  80 N8        30.36S WCI  25
POPLAR BLUFF   CLOUDY    38  31  76 CALM      30.34R
WEST PLAINS    CLOUDY    34  29  82 N5        30.32S WCI  30

$$


USA.gov is the U.S. government's official web portal to all federal, state and local government web resources and services.